EN

Hourly Weather Bryle

Today, 20 April, Tuesday

Time Temperature Precipitation Wind Pressure Humidity
00:00 +7°C° 0 mm 1 mps 748 mmHg 62%
01:00 +7°C° 0 mm 1 mps 748 mmHg 64%
02:00 +7°C° 0 mm 1 mps 748 mmHg 66%
03:00 +6°C° 0 mm 1 mps 748 mmHg 69%
04:00 +6°C° 0 mm 1 mps 748 mmHg 71%
05:00 +8°C° 0 mm 1 mps 748 mmHg 68%
06:00 +9°C° 0 mm 1 mps 748 mmHg 66%
07:00 +10°C° 0 mm 1 mps 748 mmHg 63%
08:00 +12°C° 0 mm 1 mps 748 mmHg 59%
09:00 +14°C° 0 mm 1 mps 747 mmHg 55%
10:00 +15°C° 0 mm 1 mps 747 mmHg 51%
11:00 +16°C° 0.2 mm 1 mps 747 mmHg 48%
12:00 +16°C° 0.2 mm 1 mps 746 mmHg 45%
13:00 +18°C° 0.2 mm 1 mps 746 mmHg 41%
14:00 +16°C° 0 mm 1 mps 746 mmHg 44%
15:00 +16°C° 0 mm 2 mps 746 mmHg 47%
16:00 +15°C° 0 mm 2 mps 746 mmHg 49%
17:00 +14°C° 0 mm 2 mps 745 mmHg 55%
18:00 +13°C° 0 mm 2 mps 745 mmHg 60%
19:00 +12°C° 0 mm 2 mps 745 mmHg 66%
20:00 +11°C° 0 mm 1 mps 745 mmHg 69%
21:00 +10°C° 0 mm 1 mps 745 mmHg 73%
22:00 +9°C° 0 mm 1 mps 745 mmHg 77%
23:00 +9°C° 0 mm 1 mps 745 mmHg 78%

Tomorrow, 21 April, Wednesday

Time Temperature Precipitation Wind Pressure Humidity
00:00 +8°C° 0 mm 1 mps 745 mmHg 78%
01:00 +7°C° 0 mm 0 mps 745 mmHg 79%
02:00 +8°C° 0 mm 1 mps 745 mmHg 80%
03:00 +7°C° 0 mm 1 mps 744 mmHg 81%
04:00 +7°C° 0 mm 1 mps 744 mmHg 83%
05:00 +8°C° 0 mm 1 mps 744 mmHg 77%
06:00 +9°C° 0 mm 1 mps 744 mmHg 71%
07:00 +9°C° 0 mm 2 mps 744 mmHg 66%
08:00 +10°C° 0 mm 2 mps 744 mmHg 58%
09:00 +13°C° 0 mm 2 mps 744 mmHg 51%
10:00 +13°C° 0 mm 3 mps 744 mmHg 44%
11:00 +14°C° 0 mm 3 mps 744 mmHg 43%
12:00 +14°C° 0 mm 4 mps 743 mmHg 43%
13:00 +14°C° 0 mm 4 mps 743 mmHg 43%
14:00 +14°C° 0 mm 4 mps 743 mmHg 45%
15:00 +13°C° 0 mm 4 mps 743 mmHg 48%
16:00 +13°C° 0 mm 4 mps 743 mmHg 50%
17:00 +10°C° 0.2 mm 5 mps 743 mmHg 61%
18:00 +8°C° 0.2 mm 5 mps 743 mmHg 73%
19:00 +6°C° 0.2 mm 5 mps 743 mmHg 84%
20:00 +5°C° 0.2 mm 4 mps 743 mmHg 82%
21:00 +4°C° 0.2 mm 4 mps 743 mmHg 79%
22:00 +4°C° 0.2 mm 4 mps 743 mmHg 77%
23:00 +3°C° 0 mm 4 mps 743 mmHg 78%

Day after tomorrow, 22 April, Thursday

Time Temperature Precipitation Wind Pressure Humidity
00:00 +1°C° 0 mm 4 mps 743 mmHg 80%
01:00 +1°C° 0 mm 5 mps 743 mmHg 81%
02:00 0°C° 0 mm 5 mps 743 mmHg 83%
03:00 0°C° 0 mm 5 mps 742 mmHg 84%
04:00 -1°C° 0 mm 5 mps 742 mmHg 85%
05:00 0°C° 0 mm 5 mps 742 mmHg 83%
06:00 0°C° 0 mm 5 mps 742 mmHg 81%
07:00 +1°C° 0 mm 5 mps 742 mmHg 80%
08:00 +1°C° 0 mm 6 mps 743 mmHg 80%
09:00 +1°C° 0 mm 6 mps 743 mmHg 81%
10:00 +2°C° 0 mm 6 mps 743 mmHg 82%
11:00 +3°C° 0.1 mm 6 mps 743 mmHg 76%
12:00 +3°C° 0.1 mm 6 mps 743 mmHg 70%
13:00 +4°C° 0.1 mm 6 mps 743 mmHg 64%
14:00 +4°C° 0.1 mm 7 mps 743 mmHg 60%
15:00 +4°C° 0.1 mm 7 mps 744 mmHg 56%
16:00 +4°C° 0.1 mm 7 mps 744 mmHg 51%
17:00 +3°C° 0 mm 7 mps 744 mmHg 57%
18:00 +2°C° 0 mm 6 mps 744 mmHg 62%
19:00 +1°C° 0 mm 6 mps 744 mmHg 68%
20:00 +1°C° 0.1 mm 5 mps 744 mmHg 76%
21:00 0°C° 0.1 mm 5 mps 744 mmHg 83%
22:00 0°C° 0.1 mm 4 mps 744 mmHg 91%
23:00 0°C° 0.1 mm 4 mps 745 mmHg 91%

23 April, Friday

Time Temperature Precipitation Wind Pressure Humidity
00:00 0°C° 0.1 mm 4 mps 745 mmHg 91%
01:00 0°C° 0.1 mm 4 mps 745 mmHg 90%
02:00 0°C° 0.1 mm 4 mps 745 mmHg 91%
03:00 0°C° 0.1 mm 4 mps 745 mmHg 91%
04:00 0°C° 0.1 mm 4 mps 746 mmHg 92%
05:00 +1°C° 0.1 mm 5 mps 746 mmHg 87%
06:00 +1°C° 0.1 mm 5 mps 747 mmHg 83%
07:00 +2°C° 0.1 mm 5 mps 747 mmHg 78%
08:00 +3°C° 0.1 mm 6 mps 748 mmHg 68%
09:00 +4°C° 0.1 mm 6 mps 748 mmHg 59%
10:00 +4°C° 0.1 mm 7 mps 749 mmHg 49%
11:00 +5°C° 0 mm 7 mps 749 mmHg 43%
12:00 +5°C° 0 mm 7 mps 750 mmHg 37%
13:00 +6°C° 0 mm 7 mps 750 mmHg 31%
14:00 +6°C° 0 mm 7 mps 751 mmHg 33%
15:00 +5°C° 0 mm 7 mps 751 mmHg 35%
16:00 +5°C° 0 mm 6 mps 751 mmHg 38%
17:00 +5°C° 0 mm 5 mps 751 mmHg 42%
18:00 +4°C° 0 mm 3 mps 751 mmHg 45%
19:00 +4°C° 0 mm 2 mps 751 mmHg 49%
20:00 +3°C° 0 mm 2 mps 751 mmHg 49%
21:00 +3°C° 0 mm 2 mps 751 mmHg 49%
22:00 +2°C° 0 mm 2 mps 751 mmHg 48%
23:00 +2°C° 0 mm 2 mps 751 mmHg 50%

24 April, Saturday

Time Temperature Precipitation Wind Pressure Humidity
00:00 +2°C° 0 mm 2 mps 750 mmHg 53%
01:00 +3°C° 0 mm 2 mps 750 mmHg 55%
02:00 +2°C° 0 mm 2 mps 750 mmHg 62%
03:00 +2°C° 0 mm 2 mps 750 mmHg 70%
04:00 +1°C° 0 mm 2 mps 750 mmHg 77%
05:00 +2°C° 0 mm 2 mps 750 mmHg 76%
06:00 +4°C° 0 mm 2 mps 749 mmHg 76%
07:00 +5°C° 0 mm 2 mps 749 mmHg 75%
08:00 +5°C° 0.2 mm 3 mps 749 mmHg 68%
09:00 +7°C° 0.2 mm 3 mps 749 mmHg 61%
10:00 +7°C° 0.2 mm 4 mps 749 mmHg 54%
11:00 +7°C° 0.1 mm 4 mps 750 mmHg 51%
12:00 +7°C° 0.1 mm 5 mps 750 mmHg 49%
13:00 +7°C° 0.1 mm 5 mps 750 mmHg 47%
14:00 +7°C° 0 mm 5 mps 750 mmHg 43%
15:00 +7°C° 0 mm 5 mps 751 mmHg 39%
16:00 +7°C° 0 mm 5 mps 751 mmHg 35%
17:00 +5°C° 0 mm 4 mps 751 mmHg 39%
18:00 +4°C° 0 mm 3 mps 751 mmHg 44%
19:00 +3°C° 0 mm 2 mps 752 mmHg 48%
20:00 +3°C° 0 mm 2 mps 752 mmHg 55%
21:00 +2°C° 0 mm 2 mps 752 mmHg 61%
22:00 +1°C° 0 mm 2 mps 752 mmHg 68%
23:00 +1°C° 0 mm 2 mps 752 mmHg 71%

25 April, Sunday

Time Temperature Precipitation Wind Pressure Humidity
00:00 +1°C° 0 mm 2 mps 752 mmHg 75%
01:00 -1°C° 0 mm 2 mps 752 mmHg 78%
02:00 -1°C° 0 mm 2 mps 753 mmHg 77%
03:00 -1°C° 0 mm 2 mps 753 mmHg 76%
04:00 -1°C° 0 mm 3 mps 753 mmHg 76%
05:00 0°C° 0 mm 3 mps 753 mmHg 70%
06:00 +1°C° 0 mm 4 mps 753 mmHg 64%
07:00 +2°C° 0 mm 5 mps 754 mmHg 58%
08:00 +3°C° 0 mm 5 mps 754 mmHg 51%
09:00 +6°C° 0 mm 5 mps 754 mmHg 44%
10:00 +7°C° 0 mm 5 mps 754 mmHg 37%
11:00 +7°C° 0 mm 5 mps 754 mmHg 35%
12:00 +7°C° 0 mm 6 mps 754 mmHg 34%
13:00 +7°C° 0 mm 6 mps 754 mmHg 33%
14:00 +7°C° 0 mm 5 mps 754 mmHg 33%
15:00 +7°C° 0 mm 5 mps 755 mmHg 33%
16:00 +7°C° 0 mm 5 mps 755 mmHg 34%
17:00 +5°C° 0 mm 4 mps 755 mmHg 40%
18:00 +4°C° 0 mm 3 mps 755 mmHg 47%
19:00 +4°C° 0 mm 2 mps 755 mmHg 53%
20:00 +3°C° 0 mm 2 mps 755 mmHg 59%
21:00 +2°C° 0 mm 2 mps 754 mmHg 66%
22:00 +1°C° 0 mm 2 mps 754 mmHg 72%
23:00 +1°C° 0 mm 2 mps 754 mmHg 75%
Show more

We Need Your Consent

Meteoprog and our Service Providers may store and access personal data such as cookies, device identifiers or other similar technologies on your device and process such data to personalise content and ads, as well as provide social media features and to analyse the traffic.

  • Store and/or access information on your device

    Cookies, device identifiers or other information can be stored or accessed on your device for the purposes indicated above.

  • Personalised ads and content, ad and content measurement, audience insights, and products development

    Ads and content can be personalised based on a profile. More data can be added to better personalise ads and content. Ad and content performance can be measured. Insights about the audience who saw the ads and content can be derived. Such data can be used to develop or improve user’s experience, systems and software.

By clicking ‘I Agree’ you will allow the use of indicated cookies, device identifiers, web beacons or other similar technologies. Your settings can be changed in the browser on your device.

For certain purposes, legitimate interests may be relied on, rather than consent. You can read more about this in our Privacy and Cookie Policy.